Home > Time Zones > World Clock > Weather > Norway > Ås > Past weeks

Flag for Norway Weather past 2 weeks in Ås, Norway

Now
41 °F

Passing clouds.


Feels Like: 30 °F
Forecast: 26 / 37 °F
Wind: 29 mph from West

Location: Oslo / Fornebu

Current Time: Mar 3, 2015 at 1:03:29 AM

Latest Report: Mar 3, 2015 at 12:20 AM


Visibility: N/A

Pressure: 29.27 "Hg

Humidity: 70%

Dew point: 32 °F

Location of ÅsLocation

Historic Weather in Ås — Graph

°F

Ås temperature yesterday

Maximum temperature yesterday: 43 °F (at 12:20 AM)
Minimum temperature yesterday: 36 °F (at 4:50 PM)
Average temperature yesterday: 40 °F

Past Weeks' High & Low Weather Summary

 TemperatureHumidityPressure
High48 °F (Feb 18, 8:50 AM)100% (Feb 17, 11:50 PM)30.04 "Hg (Feb 17, 11:50 PM)
Low34 °F (Feb 22, 6:50 AM)53% (Feb 17, 5:50 AM)28.44 "Hg (Mar 1, 12:20 PM)
Average42 °F80%29.26 "Hg
* Reported Feb 15 11:20 PM — Mar 2 11:50 PM, Ås, Weather by CustomWeather, © 2015

Note: Actual official high and low records may vary slightly from our data, if they occured in-between our weather recording intervals... More about our weather records

Advertising

Ås weather history for previous 24 hours

 ConditionsComfort  
Time TempWeatherWind HumidityBarometerVisibility
11:50 PM
Mon, Mar 2
41 °FPartly cloudy.28 mph76%29.24 "HgN/A
11:20 PM39 °FPartly cloudy.28 mph75%29.24 "HgN/A
10:50 PM41 °FPassing clouds.26 mph70%29.24 "HgN/A
10:20 PM39 °FSprinkles. Passing clouds.23 mph81%29.24 "HgN/A
9:50 PM39 °FPassing clouds.18 mph87%29.24 "HgN/A
9:20 PM39 °FPartly cloudy.20 mph87%29.24 "HgN/A
8:50 PM39 °FPassing clouds.12 mph87%29.24 "HgN/A
8:20 PM37 °FLight rain. Passing clouds.10 mph87%29.24 "HgN/A
7:50 PM36 °FSprinkles. Overcast.8 mph87%29.24 "Hg6 mi
7:20 PM39 °FSprinkles. Passing clouds.24 mph75%29.21 "HgN/A
6:50 PM37 °FPassing clouds.8 mph81%29.21 "HgN/A
6:20 PM37 °FSprinkles. Overcast.16 mph81%29.21 "HgN/A
5:50 PM37 °FSprinkles. Overcast.12 mph81%29.18 "HgN/A
5:20 PM37 °FLight rain. Overcast.7 mph81%29.18 "HgN/A
4:50 PM36 °FLight rain. Partly sunny.17 mph87%29.18 "HgN/A
4:20 PM37 °FLight rain. Partly sunny.24 mph87%29.15 "HgN/A
3:50 PM39 °FLight rain. Partly sunny.23 mph75%29.15 "HgN/A
3:20 PM41 °FPartly sunny.20 mph66%29.15 "HgN/A
2:50 PM43 °FScattered clouds.14 mph57%29.12 "HgN/A
2:20 PM41 °FPassing clouds.12 mph57%29.12 "HgN/A
1:50 PM41 °FPassing clouds.13 mph61%29.12 "HgN/A
1:20 PM43 °FScattered clouds.10 mph53%29.12 "HgN/A
12:50 PM43 °FPartly sunny.9 mph57%29.12 "HgN/A
12:20 PM43 °FPartly sunny.9 mph57%29.09 "HgN/A
11:50 AM41 °FPartly sunny.13 mph57%29.09 "HgN/A
11:20 AM41 °FPartly sunny.12 mph61%29.09 "HgN/A
10:50 AM41 °FScattered clouds.15 mph57%29.06 "HgN/A
10:20 AM41 °FScattered clouds.15 mph61%29.06 "HgN/A
9:50 AM41 °FScattered clouds.16 mph61%29.03 "HgN/A
9:20 AM39 °FPartly sunny.16 mph65%29.03 "HgN/A
8:50 AM39 °FPartly sunny.17 mph65%29.00 "HgN/A
8:20 AM39 °FScattered clouds.18 mph70%29.00 "HgN/A
7:50 AM39 °FScattered clouds.20 mph70%29.00 "HgN/A
7:20 AM39 °FPartly sunny.20 mph70%28.97 "HgN/A
6:50 AM39 °FPassing clouds.21 mph70%28.97 "HgN/A
6:20 AM39 °FSprinkles. Passing clouds.21 mph75%28.94 "HgN/A
5:50 AM37 °FPassing clouds.25 mph81%28.91 "HgN/A
5:20 AM37 °FSprinkles. Passing clouds.28 mph87%28.91 "HgN/A
4:50 AM39 °FSprinkles. Passing clouds.25 mph81%28.88 "HgN/A
4:20 AM39 °FSprinkles. Passing clouds.25 mph87%28.88 "HgN/A
3:50 AM39 °FPassing clouds.24 mph87%28.85 "HgN/A
3:20 AM39 °FPassing clouds.23 mph93%28.85 "HgN/A
2:50 AM39 °FPartly cloudy.23 mph87%28.82 "HgN/A
2:20 AM41 °FSprinkles. Passing clouds.26 mph81%28.80 "HgN/A
1:50 AM41 °FPassing clouds.7 mph81%28.80 "HgN/A
1:20 AM43 °FSprinkles. Partly cloudy.12 mph81%28.80 "HgN/A
Weather by CustomWeather, © 2015

See weather overviewHow to use our weather pages